Regional Weather Roundup
Issued by NWS Charleston, SC

Current Version | Previous Version | Graphics & Text | Print | Product List | Glossary On
Versions: 1 2 3 4 5 6 7 8 9 10 11 12 13 14 15 16 17 18 19 20 21 22 23 24 25 26 27 28 29 30 31 32 33 34 35 36 37 38 39 40 41 42 43 44 45 46 47 48 49 50
000
ASUS42 KCHS 261228
RWRCHS

REGIONAL WEATHER ROUNDUP
NATIONAL WEATHER SERVICE CHARLESTON SC
800 AM EDT FRI AUG 26 2016

NOTE: "FAIR" INDICATES FEW OR NO CLOUDS BELOW 12,000 FEET WITH NO
SIGNIFICANT WEATHER AND/OR OBSTRUCTIONS TO VISIBILITY.

NOT ALL STATIONS ARE QUALITY CONTROLLED. USE DATA WITH CAUTION...
ESPECIALLY DEWPOINT OBSERVATIONS.

SCZ027-030-031-034>040-042>050-261300-
...SOUTHEAST SOUTH CAROLINA...

CITY           SKY/WX    TMP DP  RH WIND       PRES   REMARKS
N CHARLESTON   MOSUNNY   76  72  87 N3        30.10R
6HR MIN TEMP:  71; 6HR MAX TEMP:  76;

WATERFRONT PRK   N/A     78  75  90 N5        30.08R
MOUNT PLEASANT FAIR      73  73 100 CALM      30.11R
JOHNS ISLAND   FAIR      79  75  89 N5        30.11R
PINOPOLIS        N/A     81  73  78 VRB2      30.04R
MONCKS CORNER  FAIR      73  72  94 CALM      30.11S
SUMMERVILLE    FAIR      72  72 100 CALM      30.12S
BEAUFORT MCAS  SUNNY     76  73  91 N6        30.11R
6HR MIN TEMP:  73; 6HR MAX TEMP:  76;

BEAUFORT ARPT  FAIR      77  73  88 N7        30.10S
HILTON HEAD IS SUNNY     75  75 100 NW3       30.10S
WALTERBORO     SUNNY     75  75 100 CALM      30.12S
ALLENDALE      FAIR      75  72  88 CALM      30.11S

...SOUTHERN MIDLANDS AND PEE DEE...

CITY           SKY/WX    TMP DP  RH WIND       PRES   REMARKS
GEORGETOWN     FAIR      73  72  94 CALM      30.12R
KINGSTREE      PTSUNNY   72  70  94 CALM      30.12R
ORANGEBURG     MOSUNNY   72  70  93 CALM      30.12R
6HR MIN TEMP:  69; 6HR MAX TEMP:  72;

BARNWELL       NOT AVBL
AIKEN          FAIR      73  68  83 CALM      30.15R
MANNING        FAIR      72  70  94 CALM      30.12S
COLUMBIA       MOSUNNY   74  69  85 S5        30.10S
6HR MIN TEMP:  72; 6HR MAX TEMP:  78;

SUMTER         MOSUNNY   75  70  83 S2        30.09S
6HR MIN TEMP:  73; 6HR MAX TEMP:  75;

FLORENCE       MOSUNNY   74  71  91 CALM      30.12R
6HR MIN TEMP:  72; 6HR MAX TEMP:  75;

MYRTLE BEACH   MOSUNNY   75  64  69 N6        30.13R
N MYRTLE BEACH SUNNY     74  71  91 N5        30.11R
6HR MIN TEMP:  70; 6HR MAX TEMP:  74;


$$

GAZ063-065-086>088-099>101-113>116-118-119-134>141-150-261300-
...SOUTHEAST GEORGIA...

CITY           SKY/WX    TMP DP  RH WIND       PRES   REMARKS
SAVANNAH ARPT  MOSUNNY   74  70  87 N5        30.10R
6HR MIN TEMP:  71; 6HR MAX TEMP:  74;

HUNTER AAF     SUNNY     75  75 100 N5        30.07S
6HR MIN TEMP:  71; 6HR MAX TEMP:  75;

FORT STEWART   SUNNY     72  70  93 CALM      30.07S
6HR MIN TEMP:  69; 6HR MAX TEMP:  72;

STATESBORO     SUNNY     74  72  92 CALM      30.11S
SYLVANIA       NOT AVBL
CLAXTON        FAIR      71  71 100 CALM      30.11R

...CSRA...CENTRAL AND FAR SOUTHEAST GEORGIA...

CITY           SKY/WX    TMP DP  RH WIND       PRES   REMARKS
THOMSON        MOSUNNY   75  72  91 MISG      30.16S
AUGUSTA-BUSH   PTSUNNY   72  70  93 CALM      30.10S
6HR MIN TEMP:  68; 6HR MAX TEMP:  73;

AUGUSTA-DANIEL SUNNY     78  69  73 CALM      30.12S
SWAINSBORO     FAIR      73  70  88 CALM      30.12R
VIDALIA        SUNNY     73  73 100 CALM      30.11S
EASTMAN        FAIR      71  71 100 CALM      30.13R
HAZLEHURST     FAIR      75  75 100 CALM      30.10R
ALMA           SUNNY     71  71 100 CALM      30.10R
6HR MIN TEMP:  68; 6HR MAX TEMP:  71;

WAYCROSS         N/A     76  76 100 NE3       30.08S
JESUP          FAIR      75  75 100 NE5       30.10S
BAXLEY         FAIR      73  73 100 NE3       30.10R
BRUNSWICK      MOSUNNY   75  73  94 CALM      30.09R
SAINT SIMONS   SUNNY     77  74  90 N8        30.07R
6HR MIN TEMP:  75; 6HR MAX TEMP:  81;


$$

SCZ027-028-034-036>038-045-046-048>050-GAZ119-141-261300-
...LAKE AND SUPPLEMENTAL COASTAL OBSERVATIONS...

STATION/POSITION TIME  TEMP    WIND        PRES    WAVE   SWELL
                       AIR SEA DIR/SP/G            HT/PER HT/PER/DIR
                 (UTC) (F)     (DEG/KT/KT) (MB)    (FT/S) (FT/S/D)
WINYAH BAY       1100   73     320/  3     1018.0S
LAKE MURRAY      1100   78     270/  3/  7 1019.0R
ACE BASIN NERRS  1100   73     350/  1     1019.0S
FORT PULASKI     1200   77 85  350/  6/  8 1019.4R
SAPELO ISLAND    1200   77        CALM     1018.0S

$$

ANZ835-935-AMZ111-154-330-350-352-354-370-450-454-472-261300-
...C-MAN AND BUOY OBSERVATIONS...

STATION/POSITION TIME  TEMP    WIND        PRES    WAVE   SWELL
                       AIR SEA DIR/SP/G            HT/PER HT/PER/DIR
                 (UTC) (F)     (DEG/KT/KT) (MB)    (FT/S) (FT/S/D)
BUOY 41004       1150   82 84   40/ 10/ 12 1018.5R   3/ 9   2/120/ 9
BUOY 41008       1150   82 85   50/ 12/ 14 1018.1R   3/ 7   3/120/ 7
FOLLY BEACH CMAN 1200   79     360/  4/  6 1019.6R
CAPERS NEARSHORE 1208   80 84   10/  8/ 10 1019.4R
FRIPP NEARSHORE  1208   82 86   40/ 10/ 12 1018.4S


STATION/POSITION TIME  TEMP    WIND        PRES    WAVE   SWELL
                       AIR SEA DIR/SP/G            HT/PER HT/PER/DIR
                 (UTC) (F)     (DEG/KT/KT) (MB)    (FT/S) (FT/S/D)
5E ST. MARYS GA  1201      85                N/A     3/ 8
FRYING PAN BUOY  1200   81 84   40/  6/  8 1019.0S
BUOY 41025       1150   82 84  300/  4/  6 1019.8R   3/ 9   3/ 90/ 9
CAPE LOOKOUT NC  1200   81     340/  2/  3 1019.4R
BUOY 41002       1150   81 84  360/ 10/ 12 1017.2R   4/ 8   3/110/ 8
BUOY 41010       NOT AVBL
ST AUGUSTINE FL  1200   81 82   50/ 13/ 14 1018.3R


$$




USA.gov is the U.S. government's official web portal to all federal, state and local government web resources and services.